TimeMDT,TemperatureF,Dew PointF,Humidity,Sea Level PressureIn,VisibilityMPH,Wind Direction,Wind SpeedMPH,Gust SpeedMPH,PrecipitationIn,Events,Conditions,WindDirDegrees,DateUTC
12:15 AM,62.6,48.2,59,30.33,-9999.0,West,5.8,-,N/A,,Clear,260,2014-07-10 06:15:00
12:35 AM,62.6,48.2,59,30.33,-9999.0,Calm,Calm,-,N/A,,Mostly Cloudy,0,2014-07-10 06:35:00
12:55 AM,62.6,48.2,59,30.33,-9999.0,Calm,Calm,-,N/A,,Scattered Clouds,0,2014-07-10 06:55:00
1:15 AM,62.6,48.2,59,30.33,-9999.0,Calm,Calm,-,N/A,,Clear,0,2014-07-10 07:15:00
1:35 AM,60.8,46.4,59,30.33,-9999.0,East,5.8,-,N/A,,Clear,90,2014-07-10 07:35:00
2:15 AM,60.8,48.2,63,30.32,-9999.0,Calm,Calm,-,N/A,,Clear,0,2014-07-10 08:15:00
2:35 AM,62.6,48.2,59,30.32,-9999.0,East,3.5,-,N/A,,Clear,80,2014-07-10 08:35:00
2:55 AM,60.8,46.4,59,30.31,-9999.0,Calm,Calm,-,N/A,,Clear,0,2014-07-10 08:55:00
3:15 AM,59.0,46.4,63,30.30,-9999.0,Calm,Calm,-,N/A,,Clear,0,2014-07-10 09:15:00
3:35 AM,57.2,46.4,67,30.29,-9999.0,NE,4.6,-,N/A,,Clear,40,2014-07-10 09:35:00
3:55 AM,55.4,46.4,72,30.29,-9999.0,NE,5.8,-,N/A,,Clear,40,2014-07-10 09:55:00
4:15 AM,55.4,44.6,67,30.28,-9999.0,NE,5.8,-,N/A,,Clear,40,2014-07-10 10:15:00
4:35 AM,55.4,44.6,67,30.28,-9999.0,Calm,Calm,-,N/A,,Clear,0,2014-07-10 10:35:00
4:55 AM,53.6,44.6,72,30.28,-9999.0,SSE,3.5,-,N/A,,Clear,150,2014-07-10 10:55:00
5:15 AM,53.6,44.6,72,30.28,-9999.0,SSW,3.5,-,N/A,,Clear,200,2014-07-10 11:15:00
5:35 AM,53.6,46.4,77,30.28,-9999.0,Calm,Calm,-,N/A,,Clear,0,2014-07-10 11:35:00
5:55 AM,51.8,44.6,76,30.28,-9999.0,ESE,4.6,-,N/A,,Clear,110,2014-07-10 11:55:00
6:15 AM,53.6,46.4,77,30.29,-9999.0,ENE,4.6,-,N/A,,Clear,70,2014-07-10 12:15:00
6:35 AM,51.8,44.6,76,30.29,-9999.0,NE,5.8,-,N/A,,Clear,40,2014-07-10 12:35:00
6:55 AM,53.6,46.4,77,30.29,-9999.0,NNW,3.5,-,N/A,,Clear,340,2014-07-10 12:55:00
7:15 AM,57.2,46.4,67,30.30,-9999.0,North,4.6,-,N/A,,Clear,10,2014-07-10 13:15:00
7:35 AM,-9999,-9999,N/A,-9999,-9999.0,North,-9999.0,-,N/A,,Unknown,0,2014-07-10 13:35:00
7:55 AM,-9999,-9999,N/A,-9999,-9999.0,North,-9999.0,-,N/A,,Unknown,0,2014-07-10 13:55:00
8:15 AM,-9999,-9999,N/A,-9999,-9999.0,North,-9999.0,-,N/A,,Unknown,0,2014-07-10 14:15:00
8:35 AM,-9999,-9999,N/A,-9999,-9999.0,North,-9999.0,-,N/A,,Unknown,0,2014-07-10 14:35:00
8:55 AM,-9999,-9999,N/A,-9999,-9999.0,North,-9999.0,-,N/A,,Unknown,0,2014-07-10 14:55:00
9:15 AM,-9999,-9999,N/A,-9999,-9999.0,North,-9999.0,-,N/A,,Unknown,0,2014-07-10 15:15:00
9:35 AM,-9999,-9999,N/A,-9999,-9999.0,North,-9999.0,-,N/A,,Unknown,0,2014-07-10 15:35:00
9:55 AM,-9999,-9999,N/A,-9999,-9999.0,North,-9999.0,-,N/A,,Unknown,0,2014-07-10 15:55:00
10:15 AM,-9999,-9999,N/A,-9999,-9999.0,North,-9999.0,-,N/A,,Unknown,0,2014-07-10 16:15:00
10:35 AM,-9999,-9999,N/A,-9999,-9999.0,North,-9999.0,-,N/A,,Unknown,0,2014-07-10 16:35:00
10:55 AM,-9999,-9999,N/A,-9999,-9999.0,North,-9999.0,-,N/A,,Unknown,0,2014-07-10 16:55:00
11:15 AM,-9999,-9999,N/A,-9999,-9999.0,North,-9999.0,-,N/A,,Unknown,0,2014-07-10 17:15:00
11:35 AM,-9999,-9999,N/A,-9999,-9999.0,North,-9999.0,-,N/A,,Unknown,0,2014-07-10 17:35:00
11:55 AM,-9999,-9999,N/A,-9999,-9999.0,North,-9999.0,-,N/A,,Unknown,0,2014-07-10 17:55:00
12:15 PM,-9999,-9999,N/A,-9999,-9999.0,North,-9999.0,-,N/A,,Unknown,0,2014-07-10 18:15:00
12:35 PM,-9999,-9999,N/A,-9999,-9999.0,North,-9999.0,-,N/A,,Unknown,0,2014-07-10 18:35:00
12:55 PM,-9999,-9999,N/A,-9999,-9999.0,North,-9999.0,-,N/A,,Unknown,0,2014-07-10 18:55:00
1:35 PM,-9999,-9999,N/A,-9999,-9999.0,North,-9999.0,-,N/A,,Unknown,0,2014-07-10 19:35:00
1:55 PM,-9999,-9999,N/A,-9999,-9999.0,North,-9999.0,-,N/A,,Unknown,0,2014-07-10 19:55:00
2:35 PM,-9999,-9999,N/A,-9999,-9999.0,North,-9999.0,-,N/A,Thunderstorm,Unknown,0,2014-07-10 20:35:00
2:55 PM,-9999,-9999,N/A,-9999,-9999.0,North,-9999.0,-,N/A,,Unknown,0,2014-07-10 20:55:00
3:15 PM,-9999,-9999,N/A,-9999,-9999.0,North,-9999.0,-,N/A,,Unknown,0,2014-07-10 21:15:00
3:35 PM,-9999,-9999,N/A,-9999,-9999.0,North,-9999.0,-,N/A,,Unknown,0,2014-07-10 21:35:00
3:55 PM,-9999,-9999,N/A,-9999,-9999.0,North,-9999.0,-,N/A,,Unknown,0,2014-07-10 21:55:00
4:15 PM,-9999,-9999,N/A,-9999,-9999.0,North,-9999.0,-,N/A,,Unknown,0,2014-07-10 22:15:00
4:35 PM,-9999,-9999,N/A,-9999,-9999.0,North,-9999.0,-,N/A,,Unknown,0,2014-07-10 22:35:00
4:55 PM,-9999,-9999,N/A,-9999,-9999.0,North,-9999.0,-,N/A,,Unknown,0,2014-07-10 22:55:00
5:15 PM,-9999,-9999,N/A,-9999,-9999.0,North,-9999.0,-,N/A,,Unknown,0,2014-07-10 23:15:00
5:35 PM,-9999,-9999,N/A,-9999,-9999.0,North,-9999.0,-,N/A,,Unknown,0,2014-07-10 23:35:00
5:55 PM,-9999,-9999,N/A,-9999,-9999.0,North,-9999.0,-,N/A,,Unknown,0,2014-07-10 23:55:00
6:15 PM,-9999,-9999,N/A,-9999,-9999.0,North,-9999.0,-,N/A,,Unknown,0,2014-07-11 00:15:00
6:35 PM,-9999,-9999,N/A,-9999,-9999.0,North,-9999.0,-,N/A,,Unknown,0,2014-07-11 00:35:00
6:55 PM,-9999,-9999,N/A,-9999,-9999.0,North,-9999.0,-,N/A,,Unknown,0,2014-07-11 00:55:00
7:15 PM,-9999,-9999,N/A,-9999,-9999.0,North,-9999.0,-,N/A,,Unknown,0,2014-07-11 01:15:00
7:35 PM,-9999,-9999,N/A,-9999,-9999.0,North,-9999.0,-,N/A,,Unknown,0,2014-07-11 01:35:00
7:55 PM,-9999,-9999,N/A,-9999,-9999.0,North,-9999.0,-,N/A,,Unknown,0,2014-07-11 01:55:00
8:15 PM,-9999,-9999,N/A,-9999,-9999.0,North,-9999.0,-,N/A,,Unknown,0,2014-07-11 02:15:00
8:35 PM,-9999,-9999,N/A,-9999,-9999.0,North,-9999.0,-,N/A,,Unknown,0,2014-07-11 02:35:00
8:55 PM,-9999,-9999,N/A,-9999,-9999.0,North,-9999.0,-,N/A,,Unknown,0,2014-07-11 02:55:00
9:15 PM,-9999,-9999,N/A,-9999,-9999.0,North,-9999.0,-,N/A,,Unknown,0,2014-07-11 03:15:00
9:35 PM,-9999,-9999,N/A,-9999,-9999.0,North,-9999.0,-,N/A,,Unknown,0,2014-07-11 03:35:00
9:55 PM,-9999,-9999,N/A,-9999,-9999.0,North,-9999.0,-,N/A,,Unknown,0,2014-07-11 03:55:00
10:15 PM,-9999,-9999,N/A,-9999,-9999.0,North,-9999.0,-,N/A,,Unknown,0,2014-07-11 04:15:00
10:35 PM,-9999,-9999,N/A,-9999,-9999.0,North,-9999.0,-,N/A,,Unknown,0,2014-07-11 04:35:00
10:55 PM,-9999,-9999,N/A,-9999,-9999.0,North,-9999.0,-,N/A,,Unknown,0,2014-07-11 04:55:00
11:15 PM,-9999,-9999,N/A,-9999,-9999.0,North,-9999.0,-,N/A,,Unknown,0,2014-07-11 05:15:00
11:35 PM,-9999,-9999,N/A,-9999,-9999.0,North,-9999.0,-,N/A,,Unknown,0,2014-07-11 05:35:00
11:55 PM,-9999,-9999,N/A,-9999,-9999.0,North,-9999.0,-,N/A,,Unknown,0,2014-07-11 05:55:00